RYR4Q EDDK-LGKR

Flight info

Callsign RYR4Q
Flight time 1h 53m
Altitude 35000
Route KUMIK1B KUMIK L603 TESGA DCT ESATI DCT DETEV DCT DINKU M867 XERUM DCT BAVAX DCT RADIZ DCT GIMIX DCT SABAD DCT NERRA DCT TIGRA
Aircraft B738/M-SDE2E3FGHIRWXY/LB1

Departure

Time 2026-05-07 08:01
Airport Cologne Bonn Airport (EDDK)

Arrival

Time 2026-05-07 09:54
Airport Corfu Ioannis Kapodistrias International Airport (LGKR)
Time Latitude Longitude Altitude Speed Heading
2026-05-07 07:32 50.87278 7.13196 245 ft 0 kts 227°
2026-05-07 07:50 50.87280 7.13200 245 ft 2 kts 227°
2026-05-07 07:50 50.87291 7.13216 245 ft 2 kts 216°
2026-05-07 07:51 50.87304 7.13229 245 ft 2 kts 207°
2026-05-07 07:51 50.87318 7.13239 245 ft 2 kts 199°
2026-05-07 07:51 50.87332 7.13245 245 ft 2 kts 190°
2026-05-07 07:51 50.87347 7.13248 245 ft 2 kts 182°
2026-05-07 07:52 50.87362 7.13247 245 ft 2 kts 173°
2026-05-07 07:52 50.87377 7.13242 245 ft 2 kts 164°
2026-05-07 07:52 50.87391 7.13235 245 ft 2 kts 156°
2026-05-07 07:52 50.87404 7.13224 245 ft 2 kts 147°
2026-05-07 07:53 50.87416 7.13210 245 ft 2 kts 139°
2026-05-07 07:53 50.87424 7.13199 245 ft 0 kts 135°
2026-05-07 07:53 50.87424 7.13198 245 ft 0 kts 135°
2026-05-07 07:54 50.87422 7.13202 245 ft 2 kts 135°
2026-05-07 07:55 50.87391 7.13249 245 ft 10 kts 137°
2026-05-07 07:55 50.87320 7.13349 245 ft 16 kts 137°
2026-05-07 07:55 50.87225 7.13487 245 ft 20 kts 138°
2026-05-07 07:55 50.87113 7.13649 248 ft 23 kts 137°
2026-05-07 07:56 50.86990 7.13828 252 ft 24 kts 137°
2026-05-07 07:56 50.86859 7.14015 255 ft 24 kts 137°
2026-05-07 07:56 50.86746 7.14154 258 ft 17 kts 152°
2026-05-07 07:56 50.86647 7.14259 261 ft 18 kts 137°
2026-05-07 07:57 50.86551 7.14402 265 ft 20 kts 137°
2026-05-07 07:57 50.86432 7.14572 271 ft 25 kts 137°
2026-05-07 07:57 50.86286 7.14784 278 ft 30 kts 137°
2026-05-07 07:57 50.86126 7.15016 281 ft 32 kts 137°
2026-05-07 07:58 50.85952 7.15270 283 ft 35 kts 137°
2026-05-07 07:58 50.85767 7.15537 286 ft 34 kts 137°
2026-05-07 07:58 50.85606 7.15769 290 ft 28 kts 137°
2026-05-07 07:58 50.85475 7.15959 294 ft 22 kts 137°
2026-05-07 07:59 50.85379 7.16101 299 ft 16 kts 131°
2026-05-07 07:59 50.85336 7.16253 303 ft 14 kts 94°
2026-05-07 07:59 50.85360 7.16403 305 ft 15 kts 56°
2026-05-07 07:59 50.85453 7.16508 308 ft 16 kts 14°
2026-05-07 08:00 50.85553 7.16508 308 ft 12 kts 333°
2026-05-07 08:00 50.85658 7.16367 305 ft 45 kts 317°
2026-05-07 08:00 50.86100 7.15722 292 ft 125 kts 317°
2026-05-07 08:00 50.86909 7.14551 326 ft 181 kts 317°
2026-05-07 08:01 50.87837 7.13216 1163 ft 180 kts 318°
2026-05-07 08:01 50.88756 7.11918 1973 ft 182 kts 321°
2026-05-07 08:01 50.89901 7.10987 2348 ft 199 kts 347°
2026-05-07 08:01 50.91372 7.10838 2713 ft 221 kts
2026-05-07 08:02 50.92777 7.11721 3448 ft 226 kts 40°
2026-05-07 08:02 50.93794 7.13620 4266 ft 229 kts 59°
2026-05-07 08:02 50.94410 7.15938 5014 ft 236 kts 76°
2026-05-07 08:02 50.94788 7.18282 5423 ft 256 kts 70°
2026-05-07 08:03 50.95370 7.20308 5797 ft 270 kts 59°
2026-05-07 08:03 50.96247 7.22985 6591 ft 276 kts 59°
2026-05-07 08:03 50.97126 7.25607 7482 ft 277 kts 58°
2026-05-07 08:03 50.98076 7.28364 7963 ft 294 kts 59°
2026-05-07 08:04 50.99040 7.31261 8798 ft 297 kts 60°
2026-05-07 08:04 50.99999 7.34206 9470 ft 306 kts 60°
2026-05-07 08:04 51.00942 7.37227 10301 ft 308 kts 62°
2026-05-07 08:04 51.01712 7.40530 10491 ft 335 kts 80°
2026-05-07 08:05 51.01604 7.44299 10801 ft 352 kts 105°
2026-05-07 08:05 51.00880 7.48083 11071 ft 372 kts 109°
2026-05-07 08:05 51.00091 7.52123 11283 ft 392 kts 108°
2026-05-07 08:05 50.99291 7.56300 11828 ft 401 kts 108°
2026-05-07 08:06 50.98460 7.60581 12406 ft 407 kts 109°
2026-05-07 08:06 50.97620 7.64872 13049 ft 412 kts 109°
2026-05-07 08:06 50.96767 7.69206 13610 ft 418 kts 110°
2026-05-07 08:06 50.95896 7.73623 14211 ft 422 kts 110°
2026-05-07 08:07 50.94954 7.78024 14760 ft 426 kts 113°
2026-05-07 08:07 50.93784 7.82393 15310 ft 429 kts 120°
2026-05-07 08:07 50.92296 7.86431 15860 ft 430 kts 126°
2026-05-07 08:07 50.90669 7.90379 16375 ft 434 kts 127°
2026-05-07 08:08 50.89007 7.94379 16872 ft 439 kts 127°
2026-05-07 08:08 50.87314 7.98453 17385 ft 443 kts 127°
2026-05-07 08:08 50.85617 8.02521 17853 ft 447 kts 127°
2026-05-07 08:08 50.83901 8.06619 18318 ft 451 kts 127°
2026-05-07 08:09 50.82151 8.10780 18775 ft 456 kts 127°
2026-05-07 08:09 50.80399 8.14938 19211 ft 460 kts 127°
2026-05-07 08:09 50.78635 8.19109 19643 ft 463 kts 127°
2026-05-07 08:09 50.76815 8.23400 20061 ft 467 kts 127°
2026-05-07 08:10 50.75003 8.27669 20477 ft 471 kts 127°
2026-05-07 08:10 50.73182 8.31940 20863 ft 475 kts 128°
2026-05-07 08:10 50.71239 8.36181 21255 ft 476 kts 132°
2026-05-07 08:10 50.69030 8.40019 21603 ft 474 kts 143°
2026-05-07 08:11 50.66399 8.43061 22019 ft 468 kts 154°
2026-05-07 08:11 50.63565 8.45582 22366 ft 469 kts 157°
2026-05-07 08:11 50.60697 8.48013 22699 ft 473 kts 157°
2026-05-07 08:11 50.57801 8.50480 23074 ft 475 kts 157°
2026-05-07 08:12 50.54890 8.52954 23398 ft 479 kts 157°
2026-05-07 08:12 50.51935 8.55454 23735 ft 482 kts 158°
2026-05-07 08:12 50.48986 8.57940 24055 ft 485 kts 157°
2026-05-07 08:12 50.46132 8.60758 24340 ft 495 kts 148°
2026-05-07 08:13 50.43425 8.64218 24679 ft 501 kts 144°
2026-05-07 08:13 50.40802 8.67890 24973 ft 505 kts 143°
2026-05-07 08:13 50.38243 8.71567 25232 ft 508 kts 143°
2026-05-07 08:13 50.35638 8.75353 25513 ft 511 kts 142°
2026-05-07 08:14 50.33042 8.79157 25769 ft 514 kts 142°
2026-05-07 08:14 50.30425 8.83013 26020 ft 517 kts 142°
2026-05-07 08:14 50.27806 8.86885 26275 ft 519 kts 142°
2026-05-07 08:14 50.25187 8.90766 26536 ft 521 kts 142°
2026-05-07 08:15 50.22564 8.94655 26778 ft 523 kts 142°
2026-05-07 08:15 50.19915 8.98584 27039 ft 525 kts 142°
2026-05-07 08:15 50.17290 9.02476 27297 ft 527 kts 142°
2026-05-07 08:15 50.14649 9.06389 27571 ft 528 kts 142°
2026-05-07 08:16 50.11955 9.10374 27820 ft 530 kts 141°
2026-05-07 08:16 50.09290 9.14312 28093 ft 531 kts 141°
2026-05-07 08:16 50.06614 9.18261 28373 ft 532 kts 141°
2026-05-07 08:16 50.03946 9.22195 28660 ft 532 kts 141°
2026-05-07 08:17 50.01267 9.26146 28947 ft 533 kts 141°
2026-05-07 08:17 49.98566 9.30123 29203 ft 534 kts 141°
2026-05-07 08:17 49.95873 9.34081 29498 ft 534 kts 141°
2026-05-07 08:17 49.93172 9.38045 29764 ft 535 kts 141°
2026-05-07 08:18 49.90487 9.41980 30045 ft 536 kts 141°
2026-05-07 08:18 49.87763 9.45966 30327 ft 536 kts 141°
2026-05-07 08:18 49.85077 9.49887 30576 ft 537 kts 141°
2026-05-07 08:18 49.82364 9.53841 30842 ft 537 kts 141°
2026-05-07 08:19 49.79619 9.57832 31085 ft 538 kts 141°
2026-05-07 08:19 49.76933 9.61726 31338 ft 538 kts 141°
2026-05-07 08:19 49.74181 9.65712 31599 ft 538 kts 142°
2026-05-07 08:19 49.71473 9.69635 31848 ft 538 kts 142°
2026-05-07 08:20 49.68725 9.73615 32066 ft 539 kts 142°
2026-05-07 08:20 49.66022 9.77520 32286 ft 539 kts 142°
2026-05-07 08:20 49.63277 9.81476 32523 ft 539 kts 142°
2026-05-07 08:20 49.60524 9.85436 32721 ft 540 kts 142°
2026-05-07 08:21 49.57810 9.89332 32943 ft 541 kts 142°
2026-05-07 08:21 49.55034 9.93313 33160 ft 541 kts 142°
2026-05-07 08:21 49.52313 9.97205 33344 ft 542 kts 142°
2026-05-07 08:21 49.49552 10.01149 33578 ft 542 kts 142°
2026-05-07 08:22 49.46773 10.05113 33781 ft 542 kts 142°
2026-05-07 08:22 49.44009 10.09049 34005 ft 542 kts 142°
2026-05-07 08:22 49.41252 10.12968 34204 ft 543 kts 142°
2026-05-07 08:22 49.38472 10.16913 34444 ft 542 kts 142°
2026-05-07 08:23 49.35701 10.20839 34675 ft 542 kts 142°
2026-05-07 08:23 49.32955 10.24724 34886 ft 542 kts 142°
2026-05-07 08:23 49.30197 10.28622 35139 ft 541 kts 142°
2026-05-07 08:23 49.27453 10.32564 35343 ft 541 kts 141°
2026-05-07 08:24 49.24674 10.36415 35538 ft 538 kts 146°
2026-05-07 08:24 49.21675 10.39754 35767 ft 530 kts 154°
2026-05-07 08:24 49.18520 10.42681 35952 ft 528 kts 156°
2026-05-07 08:24 49.15475 10.45387 36183 ft 526 kts 156°
2026-05-07 08:25 49.12225 10.48303 36340 ft 528 kts 156°
2026-05-07 08:25 49.09068 10.51158 36556 ft 527 kts 155°
2026-05-07 08:25 49.05905 10.54023 36720 ft 528 kts 154°
2026-05-07 08:25 49.02750 10.56889 36909 ft 527 kts 154°
2026-05-07 08:26 48.96446 10.62623 36980 ft 533 kts 153°
2026-05-07 08:26 48.90092 10.68414 36982 ft 534 kts 153°
2026-05-07 08:27 48.83860 10.74393 36984 ft 535 kts 144°
2026-05-07 08:27 48.78401 10.82087 36995 ft 539 kts 136°
2026-05-07 08:28 48.73248 10.90252 36993 ft 543 kts 134°
2026-05-07 08:28 48.68132 10.98638 36993 ft 547 kts 132°
2026-05-07 08:29 48.63016 11.07129 36993 ft 550 kts 131°
2026-05-07 08:29 48.57855 11.15711 36992 ft 550 kts 131°
2026-05-07 08:30 48.52729 11.24206 36992 ft 548 kts 131°
2026-05-07 08:30 48.47592 11.32688 36993 ft 548 kts 131°
2026-05-07 08:31 48.42451 11.41146 36993 ft 549 kts 131°
2026-05-07 08:31 48.37318 11.49563 36993 ft 549 kts 131°
2026-05-07 08:32 48.32151 11.58009 36993 ft 549 kts 131°
2026-05-07 08:32 48.26936 11.66421 36991 ft 549 kts 135°
2026-05-07 08:33 48.21178 11.73896 36994 ft 548 kts 143°
2026-05-07 08:33 48.15264 11.80973 36993 ft 548 kts 142°
2026-05-07 08:34 48.09330 11.88161 36993 ft 548 kts 142°
2026-05-07 08:34 48.03403 11.95325 36993 ft 548 kts 142°
2026-05-07 08:35 47.97484 12.02467 36993 ft 548 kts 142°
2026-05-07 08:35 47.91590 12.09559 36993 ft 548 kts 142°
2026-05-07 08:36 47.85699 12.16625 36993 ft 548 kts 142°
2026-05-07 08:36 47.79755 12.23737 36996 ft 548 kts 142°
2026-05-07 08:37 47.73823 12.30812 37008 ft 548 kts 142°
2026-05-07 08:37 47.67928 12.37823 37018 ft 548 kts 142°
2026-05-07 08:38 47.61971 12.44885 37020 ft 548 kts 142°
2026-05-07 08:38 47.56004 12.51938 37020 ft 548 kts 142°
2026-05-07 08:39 47.50075 12.58926 37020 ft 548 kts 142°
2026-05-07 08:39 47.44104 12.65943 37019 ft 548 kts 143°
2026-05-07 08:40 47.38165 12.72916 37020 ft 548 kts 143°
2026-05-07 08:40 47.32196 12.79901 37020 ft 548 kts 143°
2026-05-07 08:41 47.26247 12.86838 37020 ft 548 kts 143°
2026-05-07 08:41 47.20261 12.93792 37020 ft 548 kts 143°
2026-05-07 08:42 47.14294 13.00703 37019 ft 549 kts 142°
2026-05-07 08:42 47.08298 13.07635 37020 ft 552 kts 142°
2026-05-07 08:43 47.02280 13.14588 37020 ft 554 kts 141°
2026-05-07 08:43 46.96220 13.21586 37002 ft 555 kts 140°
2026-05-07 08:44 46.90165 13.28583 36985 ft 553 kts 139°
2026-05-07 08:44 46.84188 13.35462 36978 ft 550 kts 139°
2026-05-07 08:45 46.78156 13.42362 36978 ft 551 kts 139°
2026-05-07 08:45 46.72147 13.49193 36973 ft 552 kts 139°
2026-05-07 08:46 46.66089 13.56049 36976 ft 552 kts 139°
2026-05-07 08:46 46.60075 13.62833 36984 ft 551 kts 139°
2026-05-07 08:47 46.54003 13.69667 36992 ft 552 kts 140°
2026-05-07 08:47 46.47935 13.76479 36993 ft 552 kts 140°
2026-05-07 08:48 46.41864 13.83248 36993 ft 552 kts 140°
2026-05-07 08:48 46.35795 13.89988 36993 ft 552 kts 140°
2026-05-07 08:49 46.29730 13.96704 36993 ft 552 kts 140°
2026-05-07 08:49 46.23648 14.03419 36993 ft 552 kts 140°
2026-05-07 08:50 46.17557 14.10127 36993 ft 552 kts 140°
2026-05-07 08:50 46.11456 14.16824 36993 ft 552 kts 140°
2026-05-07 08:51 46.05365 14.23493 36993 ft 552 kts 140°
2026-05-07 08:51 45.99256 14.30162 36993 ft 552 kts 140°
2026-05-07 08:52 45.93156 14.36802 36993 ft 552 kts 140°
2026-05-07 08:52 45.87073 14.43408 36992 ft 551 kts 140°
2026-05-07 08:53 45.80951 14.50035 36993 ft 552 kts 140°
2026-05-07 08:53 45.74844 14.56625 36993 ft 552 kts 140°
2026-05-07 08:54 45.68720 14.63217 37001 ft 552 kts 140°
2026-05-07 08:54 45.62609 14.69785 37013 ft 552 kts 141°
2026-05-07 08:55 45.56486 14.76357 37020 ft 552 kts 141°
2026-05-07 08:55 45.50348 14.82919 37020 ft 552 kts 141°
2026-05-07 08:56 45.44236 14.89462 37020 ft 552 kts 140°
2026-05-07 08:56 45.38177 14.96175 37020 ft 553 kts 139°
2026-05-07 08:57 45.32120 15.02885 37020 ft 556 kts 139°
2026-05-07 08:57 45.25982 15.09657 37020 ft 557 kts 138°
2026-05-07 08:58 45.19873 15.16375 37020 ft 558 kts 138°
2026-05-07 08:58 45.13756 15.23070 37019 ft 558 kts 138°
2026-05-07 08:59 45.07605 15.29766 37020 ft 557 kts 138°
2026-05-07 08:59 45.01522 15.36376 37020 ft 554 kts 137°
2026-05-07 09:00 44.95420 15.42999 37025 ft 551 kts 137°
2026-05-07 09:00 44.89383 15.49535 37034 ft 549 kts 136°
2026-05-07 09:01 44.83297 15.56099 37046 ft 552 kts 136°
2026-05-07 09:01 44.77181 15.62663 37047 ft 553 kts 137°
2026-05-07 09:02 44.71084 15.69194 37045 ft 553 kts 137°
2026-05-07 09:02 44.64972 15.75733 37046 ft 552 kts 137°
2026-05-07 09:03 44.58888 15.82213 37031 ft 552 kts 137°
2026-05-07 09:03 44.52795 15.88679 36965 ft 553 kts 137°
2026-05-07 09:04 44.46669 15.95160 36965 ft 552 kts 138°
2026-05-07 09:04 44.40561 16.01606 36983 ft 553 kts 138°
2026-05-07 09:05 44.34426 16.08054 37004 ft 554 kts 138°
2026-05-07 09:05 44.28273 16.14503 37012 ft 554 kts 138°
2026-05-07 09:06 44.22148 16.20911 37007 ft 552 kts 137°
2026-05-07 09:06 44.16017 16.27311 37014 ft 552 kts 138°
2026-05-07 09:07 44.09847 16.33729 37021 ft 554 kts 138°
2026-05-07 09:07 44.03690 16.40115 37019 ft 553 kts 138°
2026-05-07 09:08 43.97554 16.46469 37019 ft 552 kts 137°
2026-05-07 09:08 43.91422 16.52802 37013 ft 553 kts 138°
2026-05-07 09:09 43.85273 16.59133 36998 ft 551 kts 137°
2026-05-07 09:09 43.79142 16.65431 36993 ft 552 kts 139°
2026-05-07 09:10 43.72951 16.71794 36993 ft 554 kts 139°
2026-05-07 09:10 43.66780 16.78110 36992 ft 554 kts 139°
2026-05-07 09:11 43.60646 16.84361 36992 ft 552 kts 139°
2026-05-07 09:11 43.54494 16.90609 36992 ft 549 kts 139°
2026-05-07 09:12 43.48404 16.96778 36993 ft 545 kts 139°
2026-05-07 09:12 43.42291 17.02951 36993 ft 544 kts 139°
2026-05-07 09:13 43.36245 17.09041 36993 ft 543 kts 139°
2026-05-07 09:13 43.30157 17.15165 36994 ft 545 kts 139°
2026-05-07 09:14 43.24027 17.21312 36993 ft 546 kts 139°
2026-05-07 09:14 43.17918 17.27419 36992 ft 545 kts 138°
2026-05-07 09:15 43.11818 17.33508 36993 ft 542 kts 138°
2026-05-07 09:15 43.05762 17.39541 36993 ft 541 kts 138°
2026-05-07 09:16 42.99670 17.45597 36996 ft 542 kts 139°
2026-05-07 09:16 42.93579 17.51512 36989 ft 541 kts 143°
2026-05-07 09:17 42.86834 17.55989 36994 ft 539 kts 153°
2026-05-07 09:17 42.79947 17.59899 36994 ft 541 kts 154°
2026-05-07 09:18 42.72967 17.63772 36995 ft 542 kts 154°
2026-05-07 09:18 42.65999 17.67557 37093 ft 542 kts 155°
2026-05-07 09:19 42.59031 17.71304 37098 ft 543 kts 155°
2026-05-07 09:19 42.51980 17.75053 37099 ft 542 kts 156°
2026-05-07 09:20 42.45001 17.78747 37101 ft 543 kts 155°
2026-05-07 09:20 42.37957 17.82466 37101 ft 543 kts 156°
2026-05-07 09:21 42.30952 17.86151 37101 ft 543 kts 155°
2026-05-07 09:21 42.23976 17.89811 37100 ft 543 kts 156°
2026-05-07 09:22 42.16944 17.93487 37101 ft 543 kts 155°
2026-05-07 09:22 42.09878 17.97175 37102 ft 544 kts 156°
2026-05-07 09:23 42.02894 18.00810 37099 ft 542 kts 155°
2026-05-07 09:23 41.95858 18.04468 37101 ft 541 kts 155°
2026-05-07 09:24 41.88871 18.08092 37100 ft 543 kts 155°
2026-05-07 09:24 41.81852 18.11729 37100 ft 542 kts 155°
2026-05-07 09:25 41.74819 18.15351 37102 ft 544 kts 155°
2026-05-07 09:25 41.67799 18.18964 37098 ft 543 kts 155°
2026-05-07 09:26 41.60770 18.22573 37098 ft 541 kts 155°
2026-05-07 09:26 41.53760 18.26168 37096 ft 542 kts 155°
2026-05-07 09:27 41.46743 18.29756 37083 ft 544 kts 155°
2026-05-07 09:28 41.36174 18.35142 37072 ft 542 kts 155°
2026-05-07 09:28 41.29155 18.38712 37074 ft 542 kts 155°
2026-05-07 09:29 41.22167 18.42249 37073 ft 542 kts 155°
2026-05-07 09:29 41.15099 18.45821 37073 ft 542 kts 155°
2026-05-07 09:30 41.08096 18.49353 37075 ft 543 kts 155°
2026-05-07 09:30 41.01072 18.52890 37073 ft 541 kts 155°
2026-05-07 09:31 40.94071 18.56413 37075 ft 540 kts 155°
2026-05-07 09:31 40.87087 18.59913 37073 ft 539 kts 155°
2026-05-07 09:32 40.80094 18.63408 37074 ft 541 kts 155°
2026-05-07 09:32 40.73041 18.66928 37081 ft 540 kts 156°
2026-05-07 09:33 40.66085 18.70403 37092 ft 539 kts 156°
2026-05-07 09:33 40.59078 18.73896 37101 ft 541 kts 156°
2026-05-07 09:34 40.52045 18.77384 37101 ft 542 kts 156°
2026-05-07 09:34 40.44999 18.80867 37100 ft 540 kts 156°
2026-05-07 09:35 40.38110 18.84264 36297 ft 533 kts 156°
2026-05-07 09:35 40.34638 18.85977 35388 ft 536 kts 156°
2026-05-07 09:35 40.31179 18.87681 34447 ft 539 kts 156°
2026-05-07 09:35 40.27640 18.89422 33449 ft 543 kts 156°
2026-05-07 09:36 40.24109 18.91154 32425 ft 546 kts 156°
2026-05-07 09:36 40.20586 18.92875 31364 ft 549 kts 156°
2026-05-07 09:36 40.17024 18.94611 30239 ft 552 kts 157°
2026-05-07 09:36 40.13441 18.96360 29121 ft 553 kts 157°
2026-05-07 09:37 40.09890 18.98142 28107 ft 550 kts 155°
2026-05-07 09:37 40.06485 19.00180 27256 ft 540 kts 148°
2026-05-07 09:37 40.03392 19.02851 26493 ft 526 kts 139°
2026-05-07 09:37 40.00569 19.05837 25664 ft 517 kts 136°
2026-05-07 09:38 39.97880 19.08827 24928 ft 507 kts 136°
2026-05-07 09:38 39.95238 19.11765 24325 ft 495 kts 137°
2026-05-07 09:38 39.92657 19.14641 23541 ft 488 kts 137°
2026-05-07 09:38 39.90123 19.17474 22842 ft 478 kts 137°
2026-05-07 09:39 39.87619 19.20282 22133 ft 469 kts 137°
2026-05-07 09:39 39.85187 19.23018 21316 ft 463 kts 137°
2026-05-07 09:39 39.82767 19.25716 20341 ft 461 kts 138°
2026-05-07 09:39 39.80356 19.28385 19294 ft 460 kts 138°
2026-05-07 09:40 39.77927 19.31071 18441 ft 453 kts 138°
2026-05-07 09:40 39.75564 19.33678 17815 ft 442 kts 138°
2026-05-07 09:40 39.73238 19.36229 17151 ft 433 kts 139°
2026-05-07 09:40 39.70978 19.38718 16381 ft 427 kts 138°
2026-05-07 09:41 39.68761 19.41194 15509 ft 424 kts 138°
2026-05-07 09:41 39.66536 19.43667 14604 ft 422 kts 137°
2026-05-07 09:41 39.64360 19.46217 13692 ft 419 kts 140°
2026-05-07 09:41 39.61995 19.48289 12770 ft 417 kts 151°
2026-05-07 09:42 39.59349 19.49816 11832 ft 414 kts 158°
2026-05-07 09:42 39.56739 19.51166 11397 ft 398 kts 154°
2026-05-07 09:42 39.54475 19.53116 10529 ft 395 kts 135°
2026-05-07 09:42 39.52877 19.55950 9755 ft 385 kts 115°
2026-05-07 09:43 39.52083 19.59158 9078 ft 376 kts 96°
2026-05-07 09:43 39.52029 19.62521 8106 ft 375 kts 82°
2026-05-07 09:43 39.52646 19.65737 7483 ft 364 kts 67°
2026-05-07 09:43 39.53793 19.68585 7151 ft 347 kts 60°
2026-05-07 09:44 39.54973 19.71219 6790 ft 334 kts 59°
2026-05-07 09:44 39.56130 19.73741 6563 ft 319 kts 59°
2026-05-07 09:44 39.57251 19.76137 6276 ft 307 kts 59°
2026-05-07 09:44 39.58338 19.78461 6128 ft 292 kts 59°
2026-05-07 09:45 39.59366 19.80691 5800 ft 286 kts 63°
2026-05-07 09:45 39.59906 19.83141 5215 ft 289 kts 82°
2026-05-07 09:45 39.60110 19.85724 4745 ft 287 kts 84°
2026-05-07 09:45 39.60321 19.88240 4578 ft 274 kts 84°
2026-05-07 09:46 39.60508 19.90649 4498 ft 260 kts 84°
2026-05-07 09:46 39.60663 19.92918 4425 ft 246 kts 90°
2026-05-07 09:46 39.60320 19.95015 4303 ft 234 kts 116°
2026-05-07 09:46 39.59303 19.96534 4187 ft 222 kts 146°
2026-05-07 09:47 39.57856 19.97209 3910 ft 218 kts 169°
2026-05-07 09:47 39.56425 19.97461 3888 ft 201 kts 172°
2026-05-07 09:47 39.55114 19.97647 3870 ft 179 kts 172°
2026-05-07 09:47 39.53889 19.97820 3703 ft 178 kts 169°
2026-05-07 09:48 39.52676 19.98154 3668 ft 176 kts 157°
2026-05-07 09:48 39.51575 19.98837 3640 ft 178 kts 147°
2026-05-07 09:48 39.50522 19.99665 3592 ft 176 kts 147°
2026-05-07 09:48 39.49466 20.00471 3446 ft 178 kts 148°
2026-05-07 09:49 39.48385 20.01271 3337 ft 177 kts 149°
2026-05-07 09:49 39.47241 20.01834 3159 ft 180 kts 173°
2026-05-07 09:49 39.46001 20.01531 3019 ft 187 kts 206°
2026-05-07 09:49 39.45044 20.00421 2996 ft 193 kts 236°
2026-05-07 09:50 39.44548 19.98791 2976 ft 193 kts 261°
2026-05-07 09:50 39.44600 19.97092 2886 ft 191 kts 288°
2026-05-07 09:50 39.45299 19.95673 2863 ft 189 kts 323°
2026-05-07 09:50 39.46481 19.95012 2924 ft 186 kts 349°
2026-05-07 09:51 39.47732 19.94681 2776 ft 177 kts 352°
2026-05-07 09:51 39.48900 19.94384 2577 ft 168 kts 351°
2026-05-07 09:51 39.50037 19.94086 2315 ft 167 kts 352°
2026-05-07 09:51 39.51133 19.93813 2031 ft 159 kts 351°
2026-05-07 09:52 39.52185 19.93529 1710 ft 147 kts 348°
2026-05-07 09:52 39.53189 19.93163 1421 ft 151 kts 345°
2026-05-07 09:52 39.54194 19.92795 1194 ft 153 kts 348°
2026-05-07 09:52 39.55242 19.92481 982 ft 156 kts 349°
2026-05-07 09:53 39.56295 19.92188 773 ft 154 kts 351°
2026-05-07 09:53 39.57320 19.91936 459 ft 149 kts 352°
2026-05-07 09:53 39.58336 19.91691 240 ft 147 kts 350°
2026-05-07 09:53 39.59331 19.91436 24 ft 146 kts 350°
2026-05-07 09:54 39.60194 19.91215 6 ft 99 kts 351°
2026-05-07 09:54 39.60671 19.91093 8 ft 47 kts 348°
2026-05-07 09:54 39.60886 19.91035 9 ft 18 kts 347°
2026-05-07 09:54 39.60992 19.91013 9 ft 12 kts
2026-05-07 09:55 39.61044 19.91066 10 ft 7 kts 58°
2026-05-07 09:55 39.61034 19.91130 10 ft 9 kts 156°
2026-05-07 09:55 39.60951 19.91152 9 ft 13 kts 168°
2026-05-07 09:55 39.60862 19.91174 9 ft 11 kts 172°
2026-05-07 09:56 39.60789 19.91187 9 ft 10 kts 169°
2026-05-07 09:56 39.60721 19.91211 9 ft 9 kts 163°
2026-05-07 09:56 39.60693 19.91259 9 ft 6 kts 58°
2026-05-07 09:56 39.60730 19.91277 9 ft 5 kts 358°
2026-05-07 09:57 39.60757 19.91273 9 ft 1 kts 349°